Content
SEND FEEDBACK

Daily
Averages
Monthly
Summary
United Kingdom

LONDON, ENGLAND


Home > Europe > United Kingdom > England
Elevation: 203 feet     Latitude: 51 09N     Longitude: 000 11W

WEATHER
 
SELECT A DAY
Number of Records: 297,238;   Date Range: 7/1/96 - 10/22/14
 
SHARE

PRINT THIS DATA

[ ← Previous Day ]
WEATHER ALMANAC - AUGUST 2, 2013
[ Next Day → ]
[ °C ]   °F
We're sorry. There is no daily almanac available for London, England on August 2, 2013.
WEATHER BY HOUR - AUGUST 2, 2013
[ °C ]   °F
Local TimeTemperatureDewpointHumidityBarometerVisibilityWind DirectionWind SpeedGust SpeedPrecipitationEventsConditions
12:50 AM68.0 °F60.8 °F78 %29.77 inSSW (200°)5.8 mphClear
1:20 AM68.0 °F59.0 °F73 %29.77 inSSW (210°)5.8 mphClear
1:50 AM66.2 °F59.0 °F78 %29.80 inSSW (210°)5.8 mphClear
2:20 AM64.4 °F59.0 °F83 %29.80 inSW (220°)5.8 mphClear
2:50 AM64.4 °F59.0 °F83 %29.80 inSSW (210°)4.6 mphClear
3:20 AM62.6 °F59.0 °F88 %29.77 inVariable3.5 mphClear
3:50 AM62.6 °F59.0 °F88 %29.80 inSSW (200°)4.6 mphClear
4:20 AM60.8 °F59.0 °F94 %29.80 inVariable2.3 mphClear
4:50 AM60.8 °F59.0 °F94 %29.80 in6.2 miSW (220°)4.6 mphScattered Clouds
5:20 AM60.8 °F59.0 °F94 %29.80 in6.2 miVariable3.5 mphPartly Cloudy
5:50 AM60.8 °F59.0 °F94 %29.80 in6.2 miVariable2.3 mphScattered Clouds
6:20 AM60.8 °F59.0 °F94 %29.80 in6.2 miSW (220°)4.6 mphScattered Clouds
6:50 AM62.6 °F59.0 °F88 %29.77 in6.2 miVariable3.5 mphScattered Clouds
7:20 AM62.6 °F60.8 °F94 %29.80 in6.2 miVariable3.5 mphRainLight Rain Showers
7:50 AM64.4 °F60.8 °F88 %29.77 in6.2 miESE (120°)5.8 mphScattered Clouds
8:20 AM64.4 °F60.8 °F88 %29.80 in6.2 miSW (220°)4.6 mphMostly Cloudy
8:50 AM62.6 °F60.8 °F94 %29.80 in3.7 miSW (220°)5.8 mphRain-ThunderstormLight Thunderstorms and Rain
9:20 AM64.4 °F62.6 °F94 %29.80 in5.6 miSSW (210°)4.6 mphThunderstormScattered Clouds
9:50 AM64.4 °F62.6 °F94 %29.80 in5.0 miSW (220°)4.6 mphMostly Cloudy
10:20 AM66.2 °F62.6 °F88 %29.80 in6.2 miSSW (210°)5.8 mphMostly Cloudy
10:50 AM66.2 °F62.6 °F88 %29.80 in6.2 miSSW (200°)8.1 mphMostly Cloudy
11:20 AM66.2 °F62.6 °F88 %29.80 in6.2 miSouth (190°)6.9 mphPartly Cloudy
11:50 AM69.8 °F64.4 °F83 %29.80 in6.2 miSSW (210°)9.2 mphMostly Cloudy
12:20 PM69.8 °F62.6 °F78 %29.80 in6.2 miSSW (200°)9.2 mphMostly Cloudy
12:50 PM69.8 °F62.6 °F78 %29.80 in6.2 miSSW (200°)9.2 mphMostly Cloudy
1:20 PM68.0 °F62.6 °F83 %29.80 in6.2 miSW (230°)10.4 mphMostly Cloudy
1:50 PM68.0 °F62.6 °F83 %29.80 in6.2 miSW (220°)6.9 mphMostly Cloudy
2:20 PM71.6 °F62.6 °F73 %29.80 in6.2 miSSW (210°)8.1 mphMostly Cloudy
2:50 PM73.4 °F62.6 °F69 %29.80 in6.2 miSW (230°)8.1 mphScattered Clouds
3:20 PM73.4 °F60.8 °F65 %29.80 in6.2 miSSW (200°)10.4 mphScattered Clouds
3:50 PM73.4 °F60.8 °F65 %29.80 in6.2 miSSW (210°)10.4 mphScattered Clouds
4:20 PM73.4 °F59.0 °F61 %29.80 in6.2 miSW (220°)10.4 mphScattered Clouds
4:50 PM73.4 °F59.0 °F61 %29.80 in6.2 miSW (220°)10.4 mphPartly Cloudy
5:20 PM73.4 °F57.2 °F57 %29.80 in6.2 miSSW (210°)10.4 mphPartly Cloudy
5:50 PM71.6 °F57.2 °F60 %29.80 in6.2 miSW (220°)10.4 mphPartly Cloudy
6:20 PM69.8 °F59.0 °F68 %29.80 in6.2 miSSW (210°)9.2 mphPartly Cloudy
6:50 PM69.8 °F57.2 °F64 %29.80 in6.2 miSW (220°)9.2 mphPartly Cloudy
7:20 PM68.0 °F57.2 °F68 %29.83 in6.2 miSSW (200°)6.9 mphScattered Clouds
7:50 PM68.0 °F59.0 °F73 %29.83 in6.2 miSSW (200°)8.1 mphScattered Clouds
8:20 PM66.2 °F59.0 °F78 %29.83 in6.2 miSSW (200°)6.9 mphScattered Clouds
8:50 PM66.2 °F59.0 °F78 %29.83 in6.2 miSSW (210°)6.9 mphPartly Cloudy
9:20 PM64.4 °F59.0 °F83 %29.83 in6.2 miSSW (210°)8.1 mphPartly Cloudy
9:50 PM64.4 °F59.0 °F83 %29.83 in6.2 miSSW (200°)8.1 mphPartly Cloudy
10:20 PM62.6 °F59.0 °F88 %29.86 in6.2 miSSW (210°)6.9 mphPartly Cloudy
10:50 PM62.6 °F59.0 °F88 %29.86 in6.2 miSSW (200°)6.9 mphPartly Cloudy
11:20 PM62.6 °F59.0 °F88 %29.83 in6.2 miSouth (190°)4.6 mphThunderstormPartly Cloudy
11:50 PM60.8 °F59.0 °F94 %29.83 in6.2 miVariable2.3 mphThunderstormThunderstorm
Hourly data recorded from EGKK, located miles away from London, England







STORIES FROM OUR PARTNERS